Location: Del Amo
(33.8464°N, 118.2104°W)
Time: 19:43:48
(UTC+00:00)

Vanguard 3 - Pass Details

Date: 13 September 2024
Orbit: 507 x 3224 km, 33.4° (Epoch: 05 October)

Event Time Altitude Azimuth Distance (km) Brightness Sun altitude
Rises 16:50:54 0° 261° (W) 7,136 11.6 38.7°
Reaches altitude 10° 16:55:40 10° 261° (W) 6,153 11.3 39.6°
Maximum altitude 17:15:28 88° 176° (S) 2,754 10.6 43.2°
Drops below altitude 10° 17:28:49 10° 88° (E) 4,381 11.6 45.5°
Sets 17:31:36 0° 88° (E) 5,077 11.7 45.9°
